Quesnel,

2:39 PM PST on January 19, 2018 (GMT -0800)
Quesnel

Weather History for CYQZ - October, 2011

Change the Weather History Date:

Thursday, October 27, 2011

  Actual Average Record
Temperature  
Mean Temperature 34 °F -  
Max Temperature 46 °F 36 °F 57 °F (2017)
Min Temperature 23 °F 23 °F 19 °F (1999)
Degree Days  
Heating Degree Days 30    
Moisture  
Dew Point 24 °F    
Average Humidity 68    
Maximum Humidity 100    
Minimum Humidity 40    
Precipitation  
Precipitation 0.00 in - - ()
Sea Level Pressure  
Sea Level Pressure 30.21 in    
Wind  
Wind Speed 3 mph ()    
Max Wind Speed 12 mph    
Max Gust Speed 20 mph    
Visibility 9.0 miles    
Events      
Averages and records for this station are not official NWS values.
T = Trace of Precipitation, MM = Missing Value Source: Averaged Metar Reports

Daily Weather History Graph

Daily Weather History Graph

Search for Another Location

Airport or City:

Trip Planner

Search our weather history database for the weather conditions in past years. The results will help you decide how hot, cold, wet, or windy it might be!

Date:

Astronomy

Oct. 27, 2011 Rise Set
Actual Time 7:58 AM PDT 5:48 PM PDT
Civil Twilight 7:22 AM PDT 6:24 PM PDT
Nautical Twilight 6:41 AM PDT 7:05 PM PDT
Astronomical Twilight 6:01 AM PDT 7:45 PM PDT
Moon 9:27 AM PDT (10/27) 6:01 PM PDT (10/27)
Length of Visible Light 11h 02m
Length of Day
9h 50m
New Moon, 1% of the Moon is Illuminated
Oct 27
New Moon
Nov 2
First Quarter
Nov 10
Full
Nov 18
Last Quarter
Nov 24
New

Hourly Weather History & Observations

Time (PDT) Temp. Windchill Dew Point Humidity Pressure Visibility Wind Dir Wind Speed Gust Speed Precip Events Conditions
12:00 AM 26.6 °F - 26.6 °F 100% 30.16 in 9.0 mi Calm Calm - N/A   Clear
2:00 AM 23.0 °F - 21.2 °F 93% 30.21 in 9.0 mi Calm Calm - N/A   Clear
4:00 AM 23.0 °F - 23.0 °F 100% 30.22 in 9.0 mi Calm Calm - N/A   Clear
5:00 AM 23.0 °F - 23.0 °F 100% 30.23 in 9.0 mi Variable 2.3 mph - N/A   Partly Cloudy
6:00 AM 23.0 °F - 21.2 °F 93% 30.25 in 9.0 mi Calm Calm - N/A   Clear
7:00 AM 24.8 °F - 24.8 °F 100% 30.27 in 9.0 mi Calm Calm - N/A   Clear
9:00 AM 24.8 °F - 24.8 °F 100% 30.30 in 9.0 mi Calm Calm - N/A   Clear
10:00 AM 30.2 °F - 28.4 °F 93% 30.30 in 9.0 mi Variable 2.3 mph - N/A   Clear
11:00 AM 37.4 °F 32.1 °F 24.8 °F 60% 30.29 in 9.0 mi SSE 6.9 mph - N/A   Clear
12:00 PM 41.0 °F 35.8 °F 24.8 °F 53% 30.28 in 9.0 mi SE 8.1 mph - N/A   Clear
1:00 PM 44.6 °F 40.2 °F 24.8 °F 46% 30.27 in 9.0 mi SE 8.1 mph - N/A   Clear
2:00 PM 46.4 °F 42.4 °F 24.8 °F 43% 30.26 in 9.0 mi SE 8.1 mph - N/A   Clear
3:00 PM 46.4 °F 43.5 °F 23.0 °F 40% 30.23 in 9.0 mi SE 5.8 mph - N/A   Clear
5:00 PM 44.6 °F 41.4 °F 23.0 °F 43% 30.20 in 9.0 mi SE 5.8 mph - N/A   Clear
6:00 PM 42.8 °F 38.0 °F 21.2 °F 42% 30.19 in 9.0 mi SE 8.1 mph - N/A   Clear
7:00 PM 39.2 °F 35.0 °F 24.8 °F 56% 30.18 in 9.0 mi SE 5.8 mph - N/A   Clear
8:00 PM 41.0 °F 35.2 °F 23.0 °F 49% 30.16 in 9.0 mi SE 9.2 mph - N/A   Clear
9:00 PM 41.0 °F 34.3 °F 24.8 °F 53% 30.11 in 9.0 mi SE 11.5 mph 19.6 mph N/A   Clear
10:00 PM 41.0 °F 34.7 °F 24.8 °F 53% 30.06 in 9.0 mi SE 10.4 mph - N/A   Clear
11:00 PM 41.0 °F 34.7 °F 24.8 °F 53% 30.01 in 9.0 mi SE 10.4 mph - N/A   Scattered Clouds